This is the latest recevied weather packets stored in our database for station/object KC0QBU-13. If no packets are shown the sender has not sent any weather packets the latest 10 day(s).
| Time | Temp. | Humidity | Pressure | Rain* | Wind** | Luminosity | Snow |
|---|---|---|---|---|---|---|---|
| 1777904152 | 20° C | 51% | 1006.1 hPa | 0 mm | - | - | - |
| 1777903852 | 20.56° C | 52% | 1005.9 hPa | 0 mm | - | - | - |
| 1777903522 | 20° C | 53% | 1005.9 hPa | 0 mm | - | - | - |
| 1777903222 | 20° C | 54% | 1005.9 hPa | 0 mm | - | - | - |
| 1777902892 | 19.44° C | 52% | 1005.9 hPa | 0 mm | - | - | - |
| 1777902592 | 19.44° C | 53% | 1005.9 hPa | 0 mm | - | - | - |
| 1777902262 | 19.44° C | 54% | 1005.9 hPa | 0 mm | - | - | - |
| 1777901962 | 19.44° C | 53% | 1005.8 hPa | 0 mm | - | - | - |
| 1777901632 | 19.44° C | 53% | 1005.7 hPa | 0 mm | - | - | - |
| 1777901332 | 19.44° C | 52% | 1005.8 hPa | 0 mm | - | - | - |
| 1777901032 | 19.44° C | 52% | 1005.7 hPa | 0 mm | - | - | - |
| 1777900732 | 19.44° C | 52% | 1005.6 hPa | 0 mm | - | - | - |
| 1777900432 | 18.89° C | 53% | 1005.7 hPa | 0 mm | - | - | - |
| 1777900102 | 18.89° C | 53% | 1005.7 hPa | 0 mm | - | - | - |
| 1777899802 | 18.89° C | 53% | 1005.7 hPa | 0 mm | - | - | - |
| 1777899472 | 18.89° C | 53% | 1005.7 hPa | 0 mm | - | - | - |
| 1777899142 | 18.33° C | 53% | 1005.7 hPa | 0 mm | - | - | - |
| 1777898842 | 18.33° C | 53% | 1005.8 hPa | 0 mm | - | - | - |
| 1777898512 | 18.33° C | 53% | 1005.8 hPa | 0 mm | - | - | - |
| 1777898182 | 18.33° C | 53% | 1005.8 hPa | 0 mm | - | - | - |
| 1777897852 | 17.78° C | 54% | 1005.8 hPa | 0 mm | - | - | - |
| 1777897552 | 17.78° C | 54% | 1005.9 hPa | 0 mm | - | - | - |
| 1777897222 | 17.78° C | 54% | 1005.9 hPa | 0 mm | - | - | - |
| 1777896922 | 17.78° C | 55% | 1006 hPa | 0 mm | - | - | - |
| 1777896622 | 17.78° C | 54% | 1005.9 hPa | 0 mm | - | - | - |
* Rain latest hour (hover to see other rain measurements)
** Current wind speed in m/s (hover to see current wind gust speed)